Date String (YYYY-MM-DD hh:mm:ss) UTC,Instrument flags,absolute air pressure of the measurement (hPa),sample flow rate (lpm),inlet stack bypass flow (lpm),air temperature of the measurement (°C),ambient temperature measured by the external sensor (°C),aerosol sample conditioner tube jacket temperature (°C),OPC LED temperature (°C),internal box temperature (°C),relative humidity of the measurement (%),span deviation,mass concentration of particles derived from Lorenz-Mie calculation of OPC scattering (μg/m³),mass concentration of particles derived from Lorenz-Mie calculation of OPC scattering (μg/m³),mass concentration of particles derived from Lorenz-Mie calculation of OPC scattering (μg/m³)
DateTimeUTC,F1_M11,P_M11,Q1_M11,Q2_M11,T1_M11,T2_M11,T3_M11,T4_M11,T5_M11,U1_M11,ZSPAN_M11,X0_M11,X2_M11,X1_M11
2023-07-23 02:00:00,SystemResetWarning,0834.1,5.00,000.00,028.6,025.9,000.0,037.0,030.1,29.9,0000.0,0010.30,0006.50,0006.11
2023-07-23 02:01:00,SystemResetWarning,0834.1,5.00,000.00,028.7,026.4,000.0,037.1,030.2,30.7,0000.0,0010.34,0006.49,0006.10
2023-07-23 02:02:00,SystemResetWarning,0834.1,4.99,000.00,028.7,026.8,000.0,037.1,030.4,29.7,0000.0,0010.37,0006.50,0006.10
2023-07-23 02:03:00,SystemResetWarning,0834.1,5.00,000.00,028.7,027.1,000.0,037.1,030.4,29.2,0000.0,0010.11,0006.49,0006.09
2023-07-23 02:04:00,SystemResetWarning,0834.1,5.00,000.00,028.8,027.4,000.0,037.1,030.5,29.1,0000.6,0010.05,0006.48,0006.11
2023-07-23 02:05:00,SystemResetWarning,0834.1,5.00,000.00,028.8,027.6,000.0,037.1,030.6,29.4,0000.6,0009.93,0006.46,0006.11
2023-07-23 02:06:00,SystemResetWarning,0834.1,5.01,000.00,028.9,027.8,000.0,037.2,030.7,29.3,0000.1,0010.06,0006.50,0006.12
2023-07-23 02:07:00,SystemResetWarning,0834.1,4.99,000.00,028.9,027.2,000.0,037.1,030.7,30.4,0000.4,0010.44,0006.54,0006.13
2023-07-23 02:08:00,SystemResetWarning,0834.1,4.98,000.00,028.9,025.7,000.0,037.0,030.4,31.2,0000.6,0011.04,0006.57,0006.14
2023-07-23 02:09:00,SystemResetWarning,0834.1,5.01,000.00,028.8,025.3,000.0,037.0,030.2,30.7,0000.7,0010.87,0006.58,0006.17
2023-07-23 02:10:00,SystemResetWarning,0834.1,5.02,000.00,028.7,025.5,000.0,037.0,030.1,30.8,0001.0,0010.47,0006.60,0006.19
2023-07-23 02:11:00,SystemResetWarning,0834.1,5.00,000.00,028.7,025.9,000.0,037.1,030.2,30.8,0000.1,0010.30,0006.64,0006.22
2023-07-23 02:12:00,SystemResetWarning,0834.1,5.00,000.00,028.7,026.3,000.0,037.1,030.3,30.8,0000.2,0010.31,0006.67,0006.23
2023-07-23 02:13:00,SystemResetWarning,0834.2,5.00,000.00,028.8,026.7,000.0,037.1,030.4,30.2,0001.4,0010.46,0006.68,0006.24
2023-07-23 02:14:00,SystemResetWarning,0834.2,5.00,000.00,028.8,027.0,000.0,037.2,030.5,30.9,0000.1,0011.12,0006.72,0006.25
2023-07-23 02:15:00,SystemResetWarning,0834.2,5.00,000.00,028.9,027.3,000.0,037.2,030.6,31.0,0000.0,0011.25,0006.71,0006.24
2023-07-23 02:16:00,SystemResetWarning,0834.2,5.00,000.00,028.9,027.6,000.0,037.2,030.6,30.0,0000.0,0011.20,0006.69,0006.24
2023-07-23 02:17:00,SystemResetWarning,0834.2,5.00,000.00,028.9,027.7,000.0,037.2,030.7,29.7,0000.0,0011.10,0006.68,0006.24
2023-07-23 02:18:00,SystemResetWarning,0834.2,4.98,000.00,029.0,026.5,000.0,037.1,030.5,29.5,0000.0,0010.80,0006.65,0006.23
2023-07-23 02:19:00,SystemResetWarning,0834.2,5.00,000.00,028.9,025.4,000.0,037.0,030.4,29.1,0000.0,0010.27,0006.66,0006.24
2023-07-23 02:20:00,SystemResetWarning,0834.2,5.01,000.00,028.8,025.3,000.0,037.0,030.2,29.3,0000.0,0010.30,0006.68,0006.24
2023-07-23 02:21:00,SystemResetWarning,0834.1,5.01,000.00,028.8,025.7,000.0,037.1,030.2,29.6,0000.0,0010.26,0006.65,0006.24
2023-07-23 02:22:00,SystemResetWarning,0834.2,4.99,000.00,028.8,026.1,000.0,037.1,030.2,28.8,0000.0,0010.24,0006.60,0006.22
2023-07-23 02:23:00,SystemResetWarning,0834.2,5.00,000.00,028.8,026.5,000.0,037.1,030.3,29.0,0000.0,0010.39,0006.57,0006.22
2023-07-23 02:24:00,SystemResetWarning,0834.2,5.01,000.00,028.8,026.8,000.0,037.2,030.4,29.4,0000.0,0010.23,0006.57,0006.21
2023-07-23 02:25:00,SystemResetWarning,0834.2,4.99,000.00,028.8,027.1,000.0,037.2,030.5,29.2,0000.0,0009.54,0006.54,0006.22
2023-07-23 02:26:00,SystemResetWarning,0834.2,4.98,000.00,028.9,027.4,000.0,037.2,030.6,28.9,0000.0,0009.41,0006.56,0006.23
2023-07-23 02:27:00,SystemResetWarning,0834.2,5.00,000.00,028.9,027.6,000.0,037.3,030.7,28.8,0000.0,0009.50,0006.60,0006.24
2023-07-23 02:28:00,SystemResetWarning,0834.4,5.01,000.00,029.0,027.8,000.0,037.3,030.7,28.7,0000.0,0009.80,0006.63,0006.24
2023-07-23 02:29:00,SystemResetWarning,0834.4,4.99,000.00,029.0,026.9,000.0,037.2,030.7,29.5,0000.0,0010.40,0006.65,0006.25
2023-07-23 02:30:00,SystemResetWarning,0834.2,4.99,000.00,029.0,025.6,000.0,037.1,030.5,29.5,0000.0,0010.37,0006.63,0006.24
2023-07-23 02:31:00,SystemResetWarning,0834.2,5.01,000.00,028.9,025.3,000.0,037.1,030.2,28.7,0000.0,0010.30,0006.61,0006.23
2023-07-23 02:32:00,SystemResetWarning,0834.4,5.00,000.00,028.8,025.6,000.0,037.1,030.2,28.7,0000.0,0010.38,0006.66,0006.25
2023-07-23 02:33:00,SystemResetWarning,0834.5,4.99,000.00,028.8,026.0,000.0,037.2,030.3,29.0,0000.0,0010.36,0006.68,0006.26
2023-07-23 02:34:00,SystemResetWarning,0834.3,5.00,000.00,028.8,026.4,000.0,037.2,030.3,29.2,0000.0,0010.21,0006.70,0006.27
2023-07-23 02:35:00,SystemResetWarning,0834.3,5.00,000.00,028.8,026.8,000.0,037.2,030.4,29.2,0000.0,0010.17,0006.72,0006.28
2023-07-23 02:36:00,SystemResetWarning,0834.4,5.01,000.00,028.9,027.1,000.0,037.2,030.5,29.1,0000.0,0010.16,0006.71,0006.29
2023-07-23 02:37:00,SystemResetWarning,0834.4,4.99,000.00,028.9,027.4,000.0,037.3,030.6,29.1,0000.0,0010.16,0006.70,0006.28
2023-07-23 02:38:00,SystemResetWarning,0834.4,5.00,000.00,028.9,027.6,000.0,037.3,030.7,28.9,0000.0,0010.02,0006.67,0006.28
2023-07-23 02:39:00,SystemResetWarning,0834.5,5.01,000.00,029.0,027.8,000.0,037.3,030.7,29.2,0000.0,0010.26,0006.67,0006.29
2023-07-23 02:40:00,SystemResetWarning,0834.5,5.00,000.00,029.0,027.2,000.0,037.3,030.7,28.3,0000.0,0010.08,0006.64,0006.29
2023-07-23 02:41:00,SystemResetWarning,0834.5,4.99,000.00,029.0,025.7,000.0,037.2,030.4,28.7,0000.0,0009.76,0006.62,0006.30
2023-07-23 02:42:00,SystemResetWarning,0834.5,5.01,000.00,028.9,025.2,000.0,037.1,030.2,28.8,0000.0,0009.78,0006.64,0006.31
2023-07-23 02:43:00,SystemResetWarning,0834.5,5.00,000.00,028.8,025.4,000.0,037.1,030.1,28.8,0000.0,0009.79,0006.63,0006.31
2023-07-23 02:44:00,SystemResetWarning,0834.5,5.00,000.00,028.8,025.8,000.0,037.2,030.2,28.9,0000.9,0009.79,0006.61,0006.31
2023-07-23 02:45:00,SystemResetWarning,0834.5,4.99,000.00,028.8,026.2,000.0,037.2,030.3,29.0,0002.3,0009.76,0006.60,0006.31
2023-07-23 02:46:00,SystemResetWarning,0834.5,5.01,000.00,028.8,026.6,000.0,037.2,030.4,28.9,0001.3,0009.81,0006.63,0006.31
2023-07-23 02:47:00,SystemResetWarning,0834.5,5.00,000.00,028.8,027.0,000.0,037.2,030.5,29.3,0000.0,0009.82,0006.63,0006.30
2023-07-23 02:48:00,SystemResetWarning,0834.6,4.99,000.00,028.9,027.2,000.0,037.2,030.5,29.0,0000.0,0009.96,0006.64,0006.30
2023-07-23 02:49:00,SystemResetWarning,0834.5,5.00,000.00,028.9,027.5,000.0,037.3,030.6,28.4,0000.0,0010.37,0006.67,0006.31
2023-07-23 02:50:00,SystemResetWarning,0834.6,5.00,000.00,029.0,027.7,000.0,037.3,030.7,28.2,0000.0,0010.43,0006.69,0006.30
2023-07-23 02:51:00,SystemResetWarning,0834.7,5.00,000.00,029.0,027.9,000.0,037.3,030.8,29.2,0000.0,0009.86,0006.69,0006.29
2023-07-23 02:52:00,SystemResetWarning,0834.7,4.99,000.00,029.0,026.9,000.0,037.3,030.6,28.1,0000.0,0009.99,0006.70,0006.28
2023-07-23 02:53:00,SystemResetWarning,0834.5,5.01,000.00,029.0,025.5,000.0,037.2,030.4,28.0,0000.0,0010.19,0006.71,0006.29
2023-07-23 02:54:00,SystemResetWarning,0834.5,5.01,000.00,028.9,025.3,000.0,037.1,030.2,28.7,0000.0,0010.14,0006.70,0006.29
2023-07-23 02:55:00,SystemResetWarning,0834.5,4.99,000.00,028.8,025.6,000.0,037.2,030.2,28.4,0000.0,0010.19,0006.73,0006.30
2023-07-23 02:56:00,SystemResetWarning,0834.5,4.99,000.00,028.8,026.0,000.0,037.2,030.2,28.0,0000.0,0010.26,0006.76,0006.31
2023-07-23 02:57:00,SystemResetWarning,0835.0,5.00,000.00,028.8,026.4,000.0,037.2,030.3,28.0,0000.0,0010.35,0006.78,0006.33
2023-07-23 02:58:00,SystemResetWarning,0834.9,5.01,000.00,028.8,026.7,000.0,037.2,030.4,28.1,0000.0,0010.36,0006.79,0006.34
2023-07-23 02:59:00,SystemResetWarning,0834.8,5.01,000.00,028.9,027.1,000.0,037.3,030.5,28.2,0000.0,0010.47,0006.83,0006.36
